User: anonymous   Login
Location: Fort Worth, Tx
(32.7431°N, 97.3695°W)
Time: 16:09:51
(UTC-05:00)
Language:

ITUPSAT 1 - Orbit

View from above orbital plane
View from above orbital plane
View from above satellite
View from above satellite

Ground track
Ground track

The orbit data is extracted from the following two-line orbital elements,

1 35935U 09051E   24058.45457935  .00001297  00000-0  29675-3 0  9992
2 35935  98.4905 300.3873 0007315 327.1128  32.9614 14.57384420766165
Epoch (UTC): 27 February 2024 10:54:35
Eccentricity: 0.0007315
inclination: 98.4905°
perigee height: 696 km
apogee height: 707 km
right ascension of ascending node: 300.3873°
argument of perigee: 327.1128°
revolutions per day: 14.57384420
mean anomaly at epoch: 32.9614°
orbit number at epoch: 76616

The dashed part of the orbit path shows where the satellite is in the earth's shadow,  

DLR